Wind_Speed
21 22 22 21 21 21 21 21 22 22 22 23 23 24 27 28 27 10 12 13 12 7 9 5 11 14 17 18 19 14 10 13 12 9 11 8 3 7 2 11 9 5 11 21 22
23 23 23 22 23 22 22 23 23 23 23 23 23 24 25 27 22 20 19 12 10 9 11 14 11 12 11 19 12 10 8 11 7 8 9 12 3 4 2 17 3 14 21 23 23
24 24 25 25 24 24 24 24 24 24 24 24 24 23 24 24 12 9 10 11 12 12 16 15 17 12 14 19 16 9 12 12 12 8 10 12 4 9 2 8 16 18 17 19 20
24 26 26 26 26 26 26 25 24 24 23 24 24 24 22 8 7 6 7 7 9 12 17 17 16 15 16 19 19 6 13 10 14 13 6 12 8 6 6 8 16 22 20 19 17
24 25 26 27 26 27 27 26 25 25 24 23 23 21 12 9 17 2 5 7 10 14 18 17 17 17 16 15 19 17 13 14 12 18 5 6 7 12 5 10 7 21 19 19 16
25 26 27 28 28 28 29 27 26 25 25 23 20 16 6 16 2 2 7 11 12 16 19 17 15 17 18 17 18 18 19 15 16 21 12 5 13 3 11 5 11 19 17 18 17
26 27 28 29 30 30 29 29 27 25 24 22 17 8 11 18 11 4 11 12 15 17 16 18 18 17 17 18 21 21 18 17 19 21 10 7 13 1 11 4 10 15 14 16 15
26 27 29 30 29 31 31 29 27 25 23 18 13 5 9 19 15 16 14 15 16 16 17 17 10 13 18 17 21 22 22 15 18 21 6 7 14 8 14 10 9 11 14 14 15
26 27 29 30 30 31 32 29 25 24 21 12 7 9 17 4 17 18 18 19 18 18 16 15 10 14 17 17 16 17 16 20 21 18 5 6 13 10 5 12 10 10 10 13 13
29 28 30 30 30 32 31 26 23 23 10 8 15 10 19 21 20 19 21 22 17 14 14 15 11 13 15 14 13 18 16 17 16 13 14 10 13 11 8 6 8 13 11 13 15
30 31 32 32 29 28 27 15 5 5 10 15 11 12 22 6 10 15 24 21 19 18 18 17 14 15 20 19 20 19 17 18 17 16 11 10 13 12 17 6 7 13 13 13 15
30 32 34 33 31 21 14 8 7 9 12 18 23 26 31 28 12 18 18 21 21 21 20 19 19 21 20 19 18 13 13 16 16 16 13 15 17 15 19 4 9 10 15 15 16
30 32 32 34 25 12 13 15 9 13 9 23 22 26 26 26 21 18 20 20 21 22 20 21 21 23 23 17 17 13 16 17 17 16 14 14 14 16 19 8 6 8 14 17 16
30 31 31 36 10 20 16 8 12 14 8 18 24 30 30 29 29 29 27 22 23 25 24 20 21 21 17 13 13 16 18 19 16 16 11 14 13 15 18 15 14 12 9 17 15
31 32 31 28 17 11 17 16 15 12 7 11 18 34 30 32 28 24 32 26 26 25 22 22 22 20 17 19 13 16 17 16 14 11 15 17 11 14 13 16 15 15 13 10 17
34 32 34 12 13 18 17 16 13 7 13 13 21 10 25 27 27 28 24 28 26 27 25 25 22 20 17 18 16 16 17 18 12 13 14 18 16 15 11 10 7 13 7 8 14
36 34 33 16 10 13 14 12 7 10 8 20 22 20 17 20 23 26 28 28 25 23 22 27 26 24 21 11 14 13 15 11 12 13 13 20 17 11 8 18 12 20 15 11 9
39 35 24 16 10 12 13 9 14 12 21 18 25 22 22 19 23 24 27 24 25 27 19 21 22 26 23 20 16 16 14 12 15 14 12 11 7 9 7 6 13 9 14 12 11
39 22 16 17 11 8 7 11 14 15 21 21 19 21 22 18 16 23 28 27 26 26 23 20 28 20 27 25 21 20 17 17 18 19 14 12 6 7 9 11 7 15 14 11 12
22 19 19 9 6 9 8 15 20 23 24 22 18 18 17 18 18 21 20 19 31 31 24 24 22 26 25 22 26 24 16 15 12 16 16 15 14 4 10 11 10 16 14 13 13
10 6 8 5 6 6 10 16 18 21 22 20 15 17 20 20 19 15 15 19 19 26 23 25 21 23 20 24 17 16 15 16 18 13 13 12 10 6 5 6 9 12 14 16 15
8 6 9 4 6 7 12 17 18 21 21 17 11 16 21 22 14 17 8 15 26 23 24 22 16 17 24 21 22 16 20 19 11 14 13 12 10 14 9 8 8 6 14 17 15
5 10 14 6 8 11 16 17 14 16 17 14 17 17 17 20 19 17 17 10 20 20 13 12 8 9 20 16 12 18 20 19 18 14 18 13 9 12 18 14 8 11 11 15 15
5 5 6 5 10 15 14 15 15 9 13 15 17 20 19 17 20 17 18 20 16 10 12 9 10 14 13 17 17 11 22 18 17 11 15 17 5 14 15 21 18 3 11 10 8
4 4 12 6 7 9 14 15 12 16 13 13 11 17 18 18 18 19 20 18 16 5 6 6 10 15 15 18 14 13 13 19 19 18 15 13 13 10 14 18 13 7 8 10 8
5 10 11 13 15 15 12 12 11 14 15 17 14 11 17 16 18 20 19 18 14 7 14 15 10 12 18 19 18 14 19 23 25 22 20 16 10 14 12 12 8 7 6 5 8
16 16 8 10 15 14 7 11 10 11 11 21 14 15 14 18 15 14 19 18 17 5 2 7 9 8 15 4 24 7 17 17 9 14 6 5 16 17 14 12 11 9 9 10 10
Wind_Direction
7 4 0 357 355 353 351 350 348 346 343 341 341 339 335 331 324 303 257 261 207 223 203 218 239 260 269 271 260 264 286 303 26 27 352 36 95 126 103 128 118 91 111 127 145
3 1 357 351 349 348 345 344 343 341 339 337 337 335 332 330 318 279 261 241 237 227 198 220 233 246 269 273 271 265 269 340 359 4 334 322 110 324 71 96 48 99 105 131 148
0 358 354 350 346 343 340 340 339 337 335 333 333 331 329 330 292 259 187 216 248 230 219 226 257 283 275 281 278 291 306 332 326 41 303 309 359 223 126 130 212 140 137 151 154
358 355 352 348 343 340 337 334 331 331 330 329 330 329 327 321 303 111 176 219 245 212 225 231 254 267 265 273 287 269 277 300 313 312 330 340 329 336 44 73 157 138 150 160 164
355 352 350 346 340 337 334 329 327 325 325 325 326 327 333 258 262 193 207 193 185 202 222 236 243 258 266 277 293 302 271 298 315 301 334 307 272 290 300 81 116 134 156 166 173
353 350 347 343 338 334 331 325 323 321 319 320 320 319 279 269 215 209 172 175 194 206 230 247 248 266 279 301 294 291 298 304 295 284 279 275 296 169 52 328 144 141 168 171 175
350 348 346 343 336 331 326 321 318 314 313 313 310 306 268 255 282 169 197 200 197 210 237 238 256 270 278 277 276 282 279 289 265 268 258 290 277 61 173 167 161 157 178 173 177
348 346 344 342 336 330 323 316 313 308 303 303 299 242 262 265 261 221 211 214 216 225 243 261 281 280 272 276 281 281 279 271 266 257 203 222 275 151 196 150 162 186 176 172 173
348 345 342 339 336 331 322 315 305 298 292 283 280 220 270 264 220 236 217 220 218 231 242 249 262 265 265 252 257 249 256 264 260 265 190 270 286 289 155 152 177 183 180 170 165
347 343 341 337 334 331 321 314 296 282 281 246 256 278 252 246 229 224 219 223 227 223 236 232 240 254 248 248 256 262 238 236 246 248 191 225 240 272 239 163 205 170 175 174 168
345 342 339 334 332 328 323 332 260 197 225 254 242 219 280 243 231 208 210 216 234 247 231 227 233 242 248 244 239 260 284 297 306 310 320 301 296 290 285 172 247 163 162 184 181
344 341 338 333 329 318 305 289 42 318 296 272 272 270 263 277 235 211 226 206 214 229 231 240 233 242 251 268 277 287 292 278 277 282 281 273 270 269 253 188 253 198 166 188 186
343 340 338 331 326 305 299 292 321 308 278 278 268 258 250 243 237 235 213 212 221 226 235 241 241 235 241 234 254 259 264 274 281 288 290 283 257 255 256 189 219 252 180 174 183
340 338 338 336 312 323 294 1 313 314 280 277 255 238 242 241 236 236 240 220 221 233 225 240 246 251 259 233 261 265 264 252 254 261 271 261 256 230 233 217 194 204 210 171 173
337 335 332 333 295 300 322 323 316 284 274 286 251 230 218 229 231 227 225 235 228 231 239 256 257 254 237 253 260 249 262 275 287 275 266 268 264 264 234 215 197 191 179 173 163
331 331 327 337 272 267 295 308 294 242 251 259 279 283 211 216 230 233 220 216 235 233 244 250 252 262 232 243 239 255 262 254 260 264 259 251 251 264 212 184 224 30 110 168 155
326 323 313 281 252 323 318 290 239 241 274 252 254 269 218 233 236 221 232 225 212 232 227 243 251 254 254 260 255 243 240 245 242 238 243 241 234 230 136 187 167 165 183 145 165
325 320 302 255 270 289 279 255 249 265 248 272 287 290 278 231 233 232 234 235 212 222 234 233 239 239 247 228 241 247 233 244 249 250 270 260 240 200 223 132 123 129 129 144 164
326 319 271 250 228 245 250 235 241 254 275 288 322 299 283 275 269 228 227 234 228 220 237 246 254 239 228 233 221 234 258 245 262 277 280 275 208 295 155 188 191 136 139 154 172
323 303 260 148 195 227 237 253 277 276 276 292 283 292 295 289 280 275 269 244 229 236 230 230 250 259 265 248 220 220 235 242 255 262 277 284 289 259 178 152 178 151 157 159 174
300 282 117 176 202 235 244 259 263 256 263 279 302 292 296 298 307 311 309 264 304 242 239 242 244 251 242 254 238 200 226 243 262 256 244 250 264 67 85 208 146 159 149 149 174
294 274 132 199 237 239 253 260 262 275 288 281 233 276 286 296 318 294 266 340 337 317 237 229 235 239 246 250 207 225 238 221 244 258 268 284 291 144 262 184 136 200 143 150 173
286 290 268 227 255 252 278 259 247 273 280 273 278 278 263 281 286 291 300 332 278 268 8 325 245 239 237 234 252 209 238 243 219 227 259 276 261 74 55 59 25 119 142 143 170
281 293 188 217 257 280 291 296 309 260 259 275 286 289 290 269 268 273 280 288 311 289 341 313 285 287 241 241 205 251 226 231 235 226 226 237 101 56 34 34 357 84 109 123 137
251 289 346 271 319 323 311 297 307 305 306 236 262 254 263 279 282 276 274 278 272 285 286 300 292 297 282 263 283 292 284 255 238 253 252 253 129 125 85 64 340 346 103 142 177
295 333 337 302 296 292 267 262 275 288 338 315 305 256 280 263 254 271 274 277 286 316 339 319 273 283 278 280 287 236 239 239 244 230 241 244 141 153 160 159 119 6 99 128 157
333 339 305 290 291 279 322 313 266 304 283 315 308 270 261 258 303 276 247 269 274 313 248 341 301 244 275 3 293 351 248 330 235 266 354 193 78 60 61 66 65 53 39 63 59
Height
819 816 813 810 807 804 801 798 795 791 788 784 781 777 773 769 766 763 759 754 753 754 755 756 756 750 743 735 728 719 749 751 735 732 726 700 712 699 699 714 713 715 720 732 744
820 817 813 810 807 804 801 798 795 791 788 784 780 776 772 768 762 756 750 751 752 753 755 753 749 745 742 731 721 729 751 736 714 712 719 704 705 704 708 724 728 725 727 738 744
820 817 813 810 806 802 799 796 793 790 786 782 779 776 771 768 760 742 745 749 749 751 752 749 744 741 746 731 723 724 743 719 713 707 704 705 703 694 705 730 734 729 731 737 743
820 816 813 809 805 802 798 795 791 788 785 782 777 774 771 769 774 745 746 747 748 750 752 746 744 748 748 744 718 736 721 717 710 703 704 709 700 703 704 705 701 712 723 733 741
820 816 812 809 804 800 796 792 789 786 783 780 777 773 770 763 751 746 746 746 747 750 749 743 745 743 750 737 726 730 722 712 707 703 700 702 708 709 706 697 698 709 720 731 738
819 815 810 806 802 798 794 790 786 782 780 777 775 773 772 770 745 745 747 745 748 750 746 742 739 734 738 739 739 725 722 719 714 707 699 710 705 700 708 700 704 711 720 727 733
818 813 809 805 800 795 790 786 783 780 776 774 772 770 767 755 743 744 747 746 746 746 742 739 736 738 735 743 725 723 735 723 716 705 703 697 717 712 701 699 707 713 719 724 729
818 813 809 804 799 793 787 781 777 775 772 771 770 770 759 742 739 739 743 744 745 742 740 736 734 734 738 732 735 741 735 750 714 701 696 706 735 704 692 699 711 712 716 721 727
818 812 807 802 797 791 784 777 772 769 768 768 768 765 751 736 735 736 737 738 739 738 736 736 735 741 738 750 755 741 762 745 726 694 699 711 727 698 686 695 706 710 714 719 726
817 812 806 801 795 789 780 771 765 762 763 766 764 765 740 731 727 729 732 734 731 732 735 736 741 750 745 751 775 754 743 731 730 704 699 712 719 700 687 692 699 703 712 718 724
816 811 804 798 792 787 779 769 761 760 760 750 736 739 723 718 722 721 725 730 730 731 748 736 755 761 744 730 727 728 733 734 715 699 710 715 717 706 692 690 696 699 708 715 720
815 809 803 796 790 785 782 773 766 770 763 744 737 729 722 717 722 718 721 729 735 748 735 744 753 733 721 719 723 726 738 739 721 707 713 717 718 701 693 691 692 692 700 709 715
815 811 804 796 789 784 779 774 771 768 764 741 731 725 719 717 718 718 711 718 731 742 736 743 730 711 718 724 731 734 742 736 734 713 704 714 723 712 691 684 688 688 688 697 708
816 811 805 796 789 784 777 773 772 768 773 742 720 710 711 707 715 704 704 709 723 732 725 725 708 714 716 725 723 744 716 718 723 730 748 707 753 714 698 693 690 691 689 692 701
815 811 804 804 797 786 777 776 773 768 798 717 695 677 687 703 702 700 696 702 720 721 722 727 716 716 721 719 710 728 710 715 715 727 731 727 737 710 684 698 692 686 686 687 694
812 808 803 801 795 784 780 777 773 786 786 728 695 690 693 693 695 691 692 691 694 711 708 709 691 696 702 698 703 702 715 717 717 727 755 726 726 715 697 693 687 692 685 689 693
809 803 800 799 788 783 782 777 787 787 731 726 716 693 695 701 696 696 704 702 715 734 731 715 709 693 689 710 700 707 727 758 764 755 752 702 714 706 679 677 679 688 690 692 694
804 796 789 786 783 784 781 782 795 754 743 715 708 697 706 693 695 694 702 704 690 704 718 730 739 705 689 702 718 713 721 749 774 754 730 690 719 696 663 660 667 674 682 689 696
798 790 784 779 781 783 781 786 771 755 731 724 717 722 710 693 688 690 694 698 688 688 718 721 720 682 680 680 693 716 726 704 730 718 731 711 698 672 663 667 667 677 682 691 697
802 789 775 773 779 780 780 780 760 738 729 723 738 722 725 709 705 697 693 678 684 674 672 695 722 689 678 670 674 693 693 731 721 758 761 724 710 703 684 679 674 679 684 690 694
802 782 771 773 777 776 777 762 748 732 729 732 732 730 720 718 709 708 707 682 675 669 664 677 694 698 683 691 694 694 708 707 705 713 741 745 719 677 685 680 675 672 676 687 694
799 784 770 773 778 765 764 752 746 735 721 721 722 730 728 720 722 713 709 697 677 671 676 667 682 704 696 666 664 676 691 697 725 735 715 720 718 674 669 663 667 668 674 682 690
798 778 767 769 777 758 742 735 732 732 729 727 728 721 719 727 733 714 707 694 684 682 689 675 684 711 705 682 670 685 682 683 688 700 723 731 716 669 670 676 674 675 676 682 688
800 776 759 762 760 761 756 746 739 724 730 728 729 723 723 724 714 719 714 697 681 680 688 678 688 700 712 697 683 697 681 676 684 708 709 705 722 704 713 706 696 681 682 686 689
796 774 767 782 757 752 750 747 748 744 726 722 732 729 732 737 725 720 707 700 691 690 683 685 707 695 681 677 675 690 694 683 690 686 703 697 719 721 721 723 732 690 692 697 697
799 790 779 774 763 761 755 754 751 745 746 739 734 728 725 729 726 726 709 703 702 689 702 691 709 697 698 678 680 688 681 677 678 675 679 678 710 699 710 704 704 710 702 702 702
799 799 794 780 766 753 748 750 745 741 739 733 729 725 729 717 703 696 694 691 690 697 710 718 704 707 716 711 708 713 685 687 674 669 674 691 704 706 713 717 714 714 714 708 706